Wind_Speed
24 24 24 25 25 24 25 26 26 26 27 27 27 27 28 28 28 28 28 28 28 29 29 30 30 30 31 31 31 32 32 33 33 33 33 33 34 34 34 34 34 34 35 35 35 35 35 36 36 36 36 37 37 37 37 38 38 38 38 39 39 39 40 40 40 41 41 41 41 42 42 43 43 43 44 44 44 45 45 44 44 44 44 45 45 45
23 23 24 24 24 24 25 25 25 26 26 26 27 27 27 27 27 27 28 28 29 29 29 30 30 30 30 31 31 32 32 33 33 33 33 33 34 34 34 34 34 35 35 35 35 36 36 36 36 37 37 37 37 38 38 38 39 39 39 40 40 40 40 41 41 41 42 42 42 42 42 43 43 43 44 44 45 45 45 45 45 45 45 45 45 45
24 24 24 25 25 25 25 26 26 27 27 27 27 28 28 28 28 28 28 29 29 30 30 30 30 30 31 31 32 32 33 33 34 34 34 34 35 35 35 35 36 36 36 37 37 37 38 38 38 38 39 39 39 40 40 40 40 41 41 41 42 42 42 42 43 43 43 43 43 43 44 44 44 44 44 45 45 45 45 46 45 45 46 46 46 46
26 26 26 26 26 26 27 27 27 28 29 29 29 29 29 29 29 29 29 30 30 31 31 31 31 31 32 32 33 33 34 35 35 36 36 36 37 37 37 37 38 38 38 39 39 40 40 40 41 41 41 42 42 42 42 43 43 43 44 44 44 44 45 45 45 45 45 46 46 46 46 46 46 46 46 46 46 46 46 46 46 46 46 46 47 47
28 28 28 28 28 29 29 29 29 30 31 31 31 31 31 31 32 32 32 32 32 33 33 33 33 33 34 34 34 35 36 36 37 37 38 38 39 39 39 40 40 40 41 41 42 42 43 43 43 44 44 44 44 45 45 45 46 46 46 46 47 47 47 48 48 48 48 48 48 48 48 48 48 48 48 48 48 48 48 48 48 48 48 48 48 48
29 29 30 30 30 30 31 31 31 32 32 33 33 33 33 34 34 34 34 34 35 35 35 35 36 36 36 37 37 37 38 38 39 39 40 40 41 41 42 42 43 43 43 44 44 45 45 45 46 46 46 46 47 47 47 48 48 48 49 49 49 49 50 50 50 50 50 50 50 50 50 50 50 50 50 50 50 50 50 50 50 49 49 49 49 49
29 30 30 31 31 31 31 32 32 33 33 34 34 34 35 35 36 36 36 36 37 37 37 37 38 38 39 39 40 40 40 41 41 42 42 43 43 44 44 45 45 45 46 46 47 47 47 47 48 48 48 48 49 49 49 50 50 50 50 51 51 51 52 52 52 52 52 52 52 52 52 52 52 52 52 52 51 51 51 51 51 51 51 51 50 50
30 30 31 31 31 31 32 32 32 33 34 34 35 35 36 36 37 37 38 38 38 38 39 39 39 40 40 41 42 42 43 43 43 44 44 45 45 46 46 47 47 48 48 48 49 49 49 50 50 50 50 50 50 51 51 51 52 52 52 53 53 53 54 54 54 54 54 54 54 54 54 54 53 53 53 53 53 53 53 53 53 52 52 52 52 52
31 31 32 32 32 32 32 33 33 33 34 35 36 36 37 37 37 38 38 39 39 39 40 40 41 41 42 42 43 44 44 45 45 46 46 47 47 48 48 48 49 49 50 50 51 51 51 52 52 52 52 52 52 53 53 53 53 54 54 54 55 55 55 55 56 56 56 55 55 55 55 55 55 55 54 54 54 54 54 54 54 54 53 53 53 53
32 33 33 33 33 33 34 34 34 34 34 35 36 37 38 38 39 39 39 39 40 40 41 41 42 42 43 43 44 44 45 46 46 47 47 48 49 49 50 50 51 51 52 52 53 53 53 54 54 54 54 55 55 55 55 55 55 55 56 56 56 56 57 57 57 57 57 57 57 57 56 56 56 56 55 55 55 55 55 55 55 54 54 54 54 54
33 33 34 34 34 34 35 35 35 35 35 36 37 38 38 39 39 40 40 40 40 41 41 42 43 43 44 44 44 45 46 47 48 48 49 49 50 51 52 52 53 53 54 54 55 55 55 56 56 56 56 56 56 56 56 56 57 57 57 57 57 58 58 58 58 58 58 58 58 58 57 57 57 57 57 56 56 56 56 56 56 55 55 55 55 54
34 34 34 35 35 35 35 36 36 36 36 37 38 38 39 39 40 40 41 42 42 41 42 42 43 44 45 45 46 46 47 48 49 49 50 50 51 52 53 54 54 55 56 56 56 57 57 57 57 57 57 57 57 57 57 57 58 58 58 58 58 59 59 59 59 59 59 59 59 59 58 58 58 58 57 57 57 57 57 56 56 56 56 56 55 55
35 35 35 35 35 36 36 36 37 37 37 38 39 40 40 40 41 41 42 43 43 43 43 44 44 45 46 46 47 48 49 49 50 50 51 51 52 53 54 54 55 56 56 56 57 57 57 57 57 57 57 57 57 57 58 58 58 58 59 59 59 59 59 60 60 60 60 60 59 59 59 59 58 58 58 58 57 57 57 57 57 57 56 56 56 55
36 36 36 36 37 37 37 38 38 39 39 40 40 41 42 42 43 43 44 45 45 45 45 46 46 47 47 47 48 49 50 50 51 51 51 52 52 53 54 54 55 55 56 56 56 57 57 57 57 57 57 57 57 57 58 58 58 59 59 59 60 60 60 60 60 60 60 60 60 60 60 59 59 59 58 58 58 57 57 57 57 56 56 56 56 55
37 37 37 38 38 39 39 39 40 41 41 42 42 43 43 44 44 45 45 46 46 47 47 47 48 48 48 48 48 49 50 51 52 52 52 52 52 53 53 54 54 55 55 55 56 56 56 56 56 56 57 57 57 57 58 58 59 59 60 60 60 60 61 61 61 61 61 61 61 61 60 60 59 59 58 58 57 57 57 56 56 56 56 55 55 55
38 38 39 39 40 40 40 40 41 42 42 42 43 43 44 45 45 45 45 46 47 47 47 48 48 49 48 48 49 50 51 52 52 52 52 52 52 52 53 53 54 54 54 54 55 55 55 55 55 56 56 57 57 57 58 59 59 60 60 60 61 61 61 61 62 62 62 62 62 61 61 60 59 58 58 57 57 56 56 56 55 55 55 54 54 54
37 38 38 39 39 39 40 40 41 41 42 42 42 43 44 44 45 45 45 46 47 47 48 48 49 49 49 48 48 49 51 52 53 53 53 52 52 52 53 54 54 54 54 54 54 54 55 55 55 55 56 56 57 57 58 58 59 60 60 60 61 61 61 62 62 62 62 62 62 62 61 60 59 58 57 56 56 55 55 54 54 54 53 53 53 53
36 36 37 38 38 39 39 40 40 41 42 43 43 43 44 45 45 46 46 47 48 48 48 48 49 49 49 49 49 50 51 53 54 54 54 53 53 53 54 54 55 55 55 55 55 55 55 55 56 55 56 56 57 57 58 58 59 59 60 60 60 60 61 61 61 62 62 62 62 62 61 60 59 58 57 56 55 54 54 53 53 52 52 52 52 51
35 36 37 38 39 39 40 41 42 43 44 44 45 45 46 46 47 47 48 49 49 50 50 50 50 50 51 51 52 52 53 54 56 57 57 56 55 54 55 56 57 57 57 57 57 57 57 57 57 57 57 57 57 57 57 58 58 58 59 59 59 59 60 60 60 61 61 61 61 61 60 59 58 57 56 55 54 53 52 52 51 51 50 50 50 50
37 37 38 40 41 41 42 43 43 44 45 46 47 47 48 48 49 49 50 50 51 51 52 52 52 53 53 53 54 55 56 56 58 59 60 59 58 57 57 58 59 60 60 59 59 59 59 60 60 59 59 58 58 58 58 58 58 58 58 58 58 58 58 59 59 60 60 60 60 59 59 58 57 56 55 54 53 52 51 50 50 49 49 49 49 48
39 40 41 42 42 43 44 45 45 46 47 48 48 49 50 50 50 51 51 52 53 53 53 54 54 55 55 55 56 56 57 58 59 61 62 62 61 60 60 61 62 62 62 62 62 62 62 62 62 62 61 60 60 59 59 58 58 57 57 57 57 57 57 58 58 58 58 58 58 57 57 56 55 54 53 52 51 50 49 49 48 48 48 48 47 47
41 42 43 43 44 45 46 47 47 47 48 49 50 51 51 52 52 52 53 54 54 55 55 55 56 56 56 57 57 58 58 59 60 62 63 64 63 62 62 63 63 64 64 64 64 63 63 63 63 63 62 61 61 60 59 58 57 57 56 56 56 56 56 56 56 56 56 56 56 55 55 54 54 53 52 51 50 49 48 48 47 47 47 46 46 46
44 44 45 45 46 47 48 48 49 49 50 51 52 52 53 53 53 54 54 55 55 56 56 57 57 58 58 58 59 59 59 60 61 62 63 65 65 65 64 64 65 66 66 66 65 64 64 65 64 64 63 62 61 61 59 58 57 56 56 55 55 55 55 55 55 55 54 54 54 54 54 53 53 52 51 50 49 48 47 47 46 46 46 46 46 45
45 46 46 47 47 48 49 50 50 51 51 52 52 53 54 54 55 55 56 56 57 57 58 59 59 59 60 60 60 61 61 62 62 63 64 66 66 66 66 66 67 68 68 67 66 66 66 66 66 65 64 63 62 61 59 58 56 56 55 54 54 54 54 53 53 53 53 53 53 53 52 52 52 51 51 50 49 48 47 46 45 45 45 45 45 45
47 47 48 48 49 49 50 51 51 52 52 53 54 54 55 55 56 56 57 58 58 59 60 60 60 61 61 61 61 62 63 63 64 64 65 66 67 68 67 68 68 69 69 69 68 67 67 67 67 66 65 63 62 61 59 57 56 55 54 54 53 52 52 51 51 51 51 51 51 51 51 51 51 50 50 49 48 47 46 45 45 44 44 44 44 45
48 49 49 50 50 51 51 52 52 53 53 54 55 55 56 57 57 58 58 59 60 60 60 61 62 63 63 63 63 63 64 64 64 64 65 66 67 68 68 68 68 69 70 70 69 68 67 68 67 66 65 64 62 61 59 57 56 54 53 52 51 50 50 49 49 48 48 49 49 49 49 49 49 49 48 47 47 46 45 45 44 44 44 44 45 45
50 50 51 51 52 52 52 53 53 54 54 55 55 56 57 57 58 59 59 60 60 60 60 62 63 64 64 64 64 64 64 64 64 65 65 66 67 68 68 68 68 68 69 70 70 69 68 68 68 66 64 63 62 60 58 56 54 52 51 50 48 48 47 47 46 46 46 46 47 47 47 48 48 47 47 46 46 45 45 44 44 44 44 45 45 45
51 52 52 52 53 53 53 54 54 54 55 55 56 56 57 57 57 58 59 60 60 60 61 63 63 64 64 65 65 65 65 64 64 65 65 64 65 67 68 67 66 67 68 69 69 69 68 68 67 66 64 63 61 59 57 55 53 51 49 48 46 45 45 44 44 44 44 44 45 46 46 47 47 46 46 46 45 45 45 45 45 45 45 45 46 46
52 52 53 53 53 53 54 54 54 55 55 55 55 56 56 56 57 58 59 60 60 60 61 62 63 63 64 65 65 65 65 65 64 63 63 63 64 66 66 65 64 65 66 66 67 69 69 68 67 65 64 62 61 59 57 54 52 49 47 45 44 42 41 41 41 41 42 43 44 45 46 46 46 46 46 46 46 46 46 46 46 46 46 46 46 46
53 53 53 54 54 54 54 55 55 55 55 55 55 56 56 56 57 57 58 59 59 59 61 62 62 62 63 64 64 65 65 64 63 62 61 61 62 64 64 63 63 63 63 62 63 66 68 68 67 65 63 62 61 58 56 53 50 47 44 42 40 38 37 37 37 38 40 41 43 44 45 46 47 47 47 47 47 47 47 47 47 47 47 47 47 47
54 54 54 54 55 55 55 56 56 56 56 56 56 56 57 57 57 57 58 58 59 59 60 61 61 62 62 62 63 64 65 64 62 61 59 59 60 62 62 60 60 61 60 58 58 60 65 66 66 64 62 61 59 57 54 51 48 45 41 38 36 34 33 33 34 36 38 40 42 43 45 46 47 47 48 48 48 48 48 48 48 48 48 48 47 47
54 54 55 55 55 56 56 56 57 57 57 57 57 57 57 57 57 58 58 58 58 59 60 60 61 61 61 61 62 63 63 63 61 59 57 57 59 60 59 58 58 58 58 56 54 56 59 61 62 61 59 57 56 55 52 49 46 43 40 36 34 33 32 31 32 34 37 39 41 42 44 45 46 47 48 48 48 48 48 49 49 48 48 48 47 47
54 54 55 55 55 56 56 56 57 57 57 57 57 57 57 57 57 57 58 58 58 58 58 59 59 60 60 61 61 62 62 61 59 57 56 55 57 58 58 56 56 56 56 54 53 53 54 56 57 57 56 54 53 52 50 48 45 41 38 36 34 33 32 32 32 34 36 38 40 41 43 44 45 46 46 47 47 48 48 48 48 48 48 47 47 46
53 54 54 54 55 55 56 56 56 56 57 57 57 57 57 57 57 57 58 58 58 58 58 58 58 58 59 59 60 61 61 59 58 56 54 54 55 56 56 55 54 54 53 52 52 52 52 53 53 53 52 52 52 50 48 46 44 42 38 35 34 33 33 33 33 34 36 38 39 41 42 43 44 44 45 46 46 47 47 47 47 47 46 46 45 45
53 53 54 54 54 55 55 55 56 56 56 56 56 57 57 57 57 57 58 58 58 58 58 57 57 57 57 57 58 59 59 58 56 54 53 53 54 54 54 54 53 52 51 51 50 50 49 50 50 50 49 50 50 49 47 45 43 41 38 35 33 32 33 33 34 35 36 38 39 40 41 42 42 43 43 44 45 45 46 46 46 46 45 44 44 44
53 53 54 54 54 54 55 55 55 55 56 56 56 56 56 57 57 57 57 57 57 57 57 56 56 56 56 56 56 56 57 56 54 53 52 51 51 51 52 52 52 50 49 49 49 49 47 47 48 48 47 46 47 48 46 44 41 39 37 35 34 33 33 34 35 36 36 37 38 39 40 40 41 41 42 43 44 44 45 45 45 45 44 43 43 43
52 53 53 54 54 54 55 55 55 55 55 55 56 56 56 56 56 56 56 55 55 55 54 54 54 54 54 54 54 54 54 53 52 51 50 49 49 49 49 50 50 49 47 47 47 46 45 44 45 46 45 44 44 44 44 42 40 38 37 36 35 34 34 34 35 35 36 36 37 38 39 39 39 40 41 42 42 43 44 44 44 43 42 42 42 42
52 53 53 53 54 54 54 54 55 55 55 55 55 55 55 55 55 54 54 53 53 52 52 51 51 51 51 51 51 51 51 51 50 49 48 47 47 47 47 48 48 47 45 43 43 43 42 42 43 44 44 44 43 42 41 40 38 38 37 36 35 34 34 35 35 35 35 35 36 37 37 38 38 39 40 41 41 41 42 42 42 41 40 40 41 42
52 53 53 54 54 54 54 54 54 54 54 54 54 54 54 54 53 53 52 51 51 50 50 49 49 49 49 49 49 49 49 49 48 48 47 46 46 46 46 46 46 45 43 41 40 40 40 41 42 42 43 43 43 42 40 38 37 37 37 37 36 36 35 35 35 35 35 35 36 36 37 38 39 39 39 39 39 39 39 39 39 39 39 40 40 41
53 53 53 53 53 53 54 54 54 54 54 54 54 54 53 52 52 52 51 50 49 49 48 48 48 48 48 48 48 48 48 48 47 46 45 45 44 44 44 44 44 43 42 40 38 38 38 39 40 41 42 42 42 41 39 38 37 36 36 38 38 38 36 35 35 36 36 36 36 37 38 39 39 38 37 37 36 36 36 37 37 38 39 40 41 42
52 53 53 53 53 53 53 53 53 53 53 53 53 52 52 51 51 50 50 49 49 48 48 47 48 48 48 48 48 48 47 47 46 45 44 43 43 42 41 41 41 41 40 39 38 37 37 37 39 40 41 41 40 39 38 37 37 36 37 39 40 40 39 37 37 37 37 38 38 38 39 40 40 39 38 37 36 36 37 37 38 39 40 41 42 43
51 52 52 52 52 52 52 52 52 52 52 51 51 51 50 50 49 49 49 49 48 48 48 47 47 48 48 49 48 48 47 46 45 45 44 43 41 40 39 38 38 38 38 37 37 37 37 37 38 40 40 40 39 38 38 38 38 37 38 39 40 40 40 40 39 38 38 39 39 39 40 40 41 41 41 41 40 40 40 40 41 42 43 43 43 43
50 51 51 51 51 51 51 51 51 51 51 50 50 49 49 49 48 48 48 48 48 48 48 48 48 48 48 49 49 48 47 45 45 44 43 42 40 38 37 36 36 36 36 36 36 37 37 38 38 38 39 39 38 38 38 39 38 38 38 38 38 40 41 41 40 39 39 39 40 40 41 41 42 43 44 44 43 43 43 43 43 43 43 43 43 44
49 50 50 50 50 50 50 50 50 50 50 49 49 49 49 48 48 48 48 48 48 48 48 48 48 48 48 48 48 47 46 45 44 43 42 40 39 37 36 35 35 34 34 35 36 37 37 37 37 37 37 37 37 38 39 39 38 38 37 37 38 39 41 42 41 40 40 40 40 41 42 42 43 44 44 44 44 43 43 43 43 43 42 42 43 43
48 49 49 49 50 50 50 50 50 50 50 50 50 49 49 49 48 48 48 48 49 49 48 48 48 48 48 48 47 46 45 44 43 42 40 39 37 36 35 34 34 34 34 34 35 36 36 36 37 36 36 36 36 37 38 38 38 38 38 37 38 39 41 42 42 42 41 41 42 42 42 43 43 44 44 43 42 42 42 42 42 42 42 42 42 43
47 48 49 49 50 50 50 51 51 51 51 51 50 50 50 49 49 49 49 48 48 48 48 48 47 47 47 47 47 46 44 44 43 41 39 37 36 35 34 33 33 33 34 34 34 34 35 35 35 35 35 36 36 36 37 37 37 38 38 38 38 40 41 42 42 42 42 42 43 42 42 42 42 42 42 42 42 42 42 42 42 42 42 42 43 43
48 48 49 50 50 51 51 52 52 51 51 51 51 50 50 49 49 48 48 48 48 47 47 47 46 46 46 46 45 44 43 43 41 40 37 36 34 33 33 32 32 32 32 33 33 33 33 33 33 34 34 35 35 36 36 36 36 37 38 39 40 41 42 43 43 42 42 42 42 42 41 40 41 41 41 42 43 43 43 42 42 42 42 43 43 44
48 49 50 50 51 51 51 51 51 51 50 50 50 49 48 47 47 47 47 46 46 45 45 45 44 44 44 43 43 42 41 40 39 38 36 35 33 32 32 31 31 30 31 31 31 31 32 32 32 32 32 33 34 35 35 35 36 37 39 40 41 42 43 43 43 42 42 41 41 40 39 40 40 41 42 43 44 44 43 43 42 42 42 43 42 42
48 48 49 49 49 49 49 48 48 47 47 47 46 45 45 44 43 43 43 43 43 42 42 42 42 42 41 41 40 39 38 37 36 35 34 33 32 31 31 30 30 30 30 30 30 31 31 31 31 31 31 31 33 35 36 37 37 39 40 42 42 43 43 43 42 42 41 40 39 39 39 40 41 42 43 44 44 44 44 43 42 42 41 40 40 39
45 45 45 45 45 44 44 43 43 42 42 42 41 41 40 40 39 39 39 39 39 39 39 39 39 39 38 38 36 35 34 33 33 32 31 30 29 30 30 30 30 30 31 31 31 31 31 31 31 30 30 31 33 35 37 38 39 40 41 42 42 43 42 42 41 40 39 39 39 39 40 40 41 42 43 44 44 44 43 42 41 39 38 37 36 36
40 40 40 40 39 39 38 38 38 37 37 37 37 37 36 36 36 36 35 35 35 35 35 35 35 34 34 33 32 31 30 30 30 29 28 28 28 28 29 29 29 30 31 31 31 31 30 31 31 30 30 30 33 35 38 39 39 40 40 41 41 41 41 40 40 39 39 39 39 39 40 40 41 42 43 43 43 42 41 40 38 36 34 34 33 33
Wind_Direction
249 250 251 252 252 252 253 255 256 256 258 259 260 260 260 260 261 261 261 261 262 262 262 262 263 263 264 264 265 265 265 266 266 266 267 268 268 269 270 270 271 271 272 272 273 273 274 274 274 275 275 276 276 276 276 277 277 277 277 277 277 277 277 277 277 277 277 277 278 278 278 278 278 278 278 278 278 278 278 277 277 276 275 275 274 274
249 250 250 251 252 252 253 255 256 257 257 258 259 260 261 262 262 262 263 263 263 263 263 264 264 265 265 266 267 267 268 268 268 269 269 270 271 271 272 273 273 274 274 275 275 275 276 276 277 277 278 278 278 278 279 279 279 279 279 279 279 279 279 278 278 278 278 278 278 277 278 278 278 278 278 278 278 278 278 278 278 278 277 277 276 275
250 250 250 251 252 253 253 255 256 257 258 258 259 260 261 262 262 263 264 265 265 265 266 266 266 267 267 268 269 270 271 271 272 272 273 273 274 275 275 276 276 277 277 277 277 278 278 278 279 279 279 279 280 280 280 280 280 280 280 280 280 280 280 280 280 279 279 279 279 279 278 278 278 278 278 278 279 279 279 279 279 279 278 278 278 277
251 252 252 252 253 254 254 254 256 257 258 259 260 260 261 261 262 263 264 264 265 266 267 267 268 268 269 269 270 271 272 273 274 275 276 276 277 277 278 278 278 279 279 279 279 280 280 280 280 280 280 280 281 281 281 281 281 281 281 281 281 281 281 281 281 281 280 280 280 280 280 280 280 280 280 280 280 280 280 280 280 280 279 279 279 278
253 253 254 254 254 254 255 255 256 257 258 259 259 260 261 261 262 262 263 264 264 265 266 267 268 269 269 270 270 271 272 273 274 275 276 277 277 278 278 279 279 280 280 280 280 281 281 281 281 281 281 281 281 281 282 282 282 282 282 282 282 282 282 281 281 281 281 281 281 282 282 282 282 282 282 282 282 282 282 281 281 281 280 280 279 279
256 256 256 256 255 255 256 256 257 257 258 258 259 260 260 261 262 262 263 263 264 265 265 266 267 268 269 269 270 270 271 272 273 274 275 276 277 277 278 279 279 279 280 280 280 280 280 281 281 281 281 281 282 282 282 282 282 282 282 282 282 282 282 282 282 282 282 282 282 282 282 282 282 283 283 283 283 283 282 282 282 282 281 281 280 279
260 260 260 259 259 258 258 259 259 259 259 259 260 260 260 261 262 262 263 263 264 264 265 266 267 268 268 269 269 270 270 271 272 273 274 275 276 276 277 278 278 279 279 279 280 280 280 280 281 281 281 281 282 282 282 282 282 282 282 282 282 282 282 282 282 282 282 282 282 282 282 282 283 283 283 283 283 283 283 283 282 282 282 281 281 280
264 264 263 263 263 262 262 261 261 262 262 262 262 261 261 262 262 263 263 264 264 265 265 266 266 267 268 269 270 270 271 271 272 273 273 274 275 276 276 277 278 278 279 279 279 279 280 280 280 281 281 281 281 282 282 282 282 282 282 282 282 282 282 282 282 282 282 282 282 282 282 282 282 282 282 282 282 282 282 282 282 282 282 281 281 280
268 267 267 267 267 266 265 265 264 264 265 265 265 265 264 264 263 263 263 264 265 265 266 266 266 267 268 269 270 270 271 272 272 273 274 274 275 276 276 277 278 278 278 279 279 280 280 280 281 281 281 281 282 282 282 282 282 282 282 282 281 281 281 281 281 281 281 281 282 282 282 282 282 282 282 282 282 282 282 282 282 282 282 281 281 281
271 271 270 270 269 269 269 269 268 267 267 268 268 268 268 267 266 266 265 265 265 266 266 267 267 267 267 268 269 270 271 272 273 273 274 275 276 276 277 277 278 278 279 279 280 280 281 281 281 282 282 282 282 282 282 282 282 282 282 281 281 281 281 281 281 281 281 281 281 281 281 281 281 281 281 281 281 281 281 281 281 281 281 281 281 281
273 273 273 273 272 272 272 272 272 271 271 271 271 271 271 271 271 270 269 268 268 268 268 268 269 269 269 269 269 270 271 272 272 273 274 275 276 277 277 278 278 279 279 279 280 280 281 281 282 282 282 283 283 283 283 282 282 282 282 281 281 281 281 281 281 281 281 281 281 281 281 281 281 281 281 281 281 281 281 281 281 281 281 281 281 281
275 275 275 275 275 275 275 275 275 275 274 274 274 274 274 273 273 274 273 273 272 271 271 271 271 271 271 271 271 271 271 272 272 273 274 275 275 276 277 278 278 279 279 279 280 280 281 282 282 282 283 283 283 283 283 283 283 282 282 282 281 281 281 281 281 281 281 281 281 281 281 281 281 281 281 281 281 281 281 281 281 281 281 281 281 281
277 277 277 277 277 277 277 277 277 277 276 276 275 275 275 275 275 275 275 275 275 274 274 273 273 273 273 273 274 274 273 273 273 274 274 275 275 276 277 278 278 278 279 279 280 280 281 282 282 282 283 283 283 283 283 283 283 283 282 282 282 282 282 281 281 281 281 281 281 281 281 281 281 281 281 281 281 281 281 281 281 281 281 281 281 281
277 277 277 277 277 277 277 277 277 277 276 276 276 276 276 276 276 276 275 276 276 276 276 275 275 274 274 274 275 275 275 275 275 275 275 275 276 276 277 278 278 278 279 280 280 281 281 282 283 283 283 283 283 283 283 283 283 283 282 282 282 282 282 282 282 281 281 281 281 281 281 281 281 281 281 281 281 281 281 281 281 282 281 281 281 281
277 277 276 276 276 276 276 276 276 276 275 275 275 275 275 275 275 275 275 275 275 275 275 275 275 275 275 275 275 275 275 275 275 275 275 275 275 276 276 277 277 278 279 279 280 281 281 282 283 283 283 283 283 283 283 283 283 282 282 282 282 282 282 282 282 282 282 281 281 281 281 281 281 281 282 282 282 282 282 282 282 282 282 282 282 281
276 276 275 275 275 275 276 276 276 275 275 275 275 275 275 275 275 275 275 275 275 275 275 275 275 274 274 275 275 275 276 276 275 275 274 274 274 274 275 275 276 276 277 278 279 280 280 281 282 282 282 282 282 282 282 282 282 282 282 282 282 282 282 282 282 282 282 282 282 282 282 282 282 282 282 282 282 282 282 282 282 282 282 282 282 281
276 276 276 276 277 277 277 277 277 277 277 277 277 277 277 277 277 277 277 277 277 277 277 277 277 276 276 276 276 277 277 278 277 277 276 276 275 276 276 276 276 276 276 277 277 278 279 280 281 281 282 282 282 282 282 282 282 282 282 282 282 282 282 282 282 282 282 282 282 282 282 282 282 283 283 283 283 283 283 283 283 282 282 282 282 281
278 279 279 280 280 280 281 281 281 281 281 281 281 281 281 281 281 281 281 281 281 281 281 281 281 281 281 281 281 281 281 282 282 281 280 280 279 279 280 280 279 279 279 279 279 279 280 281 281 281 281 281 282 282 282 282 282 282 282 282 282 282 282 282 282 282 282 282 282 283 283 283 283 284 284 284 284 284 283 283 283 283 282 282 282 281
281 282 283 284 284 284 285 285 285 285 285 285 285 285 285 285 285 285 285 285 285 285 285 285 285 285 286 286 286 286 286 286 286 286 286 285 284 284 285 284 284 283 283 283 282 282 282 283 283 283 282 282 282 282 282 282 282 282 282 282 282 282 282 282 282 282 282 283 283 283 284 284 284 284 285 284 284 284 284 284 283 283 283 282 282 281
284 285 286 286 287 287 287 287 287 287 288 288 288 288 288 288 288 288 288 288 288 288 288 289 289 289 289 289 289 289 289 289 289 289 289 288 288 288 288 288 287 287 286 286 285 285 285 285 285 285 284 284 284 283 283 283 283 282 282 282 282 282 282 282 282 283 283 283 284 284 285 285 285 285 285 285 285 285 284 284 283 283 282 282 281 281
287 288 288 288 289 289 289 289 289 290 290 290 290 289 289 289 289 290 289 289 289 290 290 290 290 290 290 291 290 290 290 290 290 290 290 290 290 290 289 289 288 288 287 287 287 287 286 286 286 286 286 285 285 285 285 285 285 285 284 284 284 284 284 284 284 284 284 284 285 285 286 286 286 286 286 285 285 285 284 284 283 283 282 281 281 280
290 290 290 291 291 291 291 291 291 291 291 291 291 291 290 290 290 290 290 290 290 290 290 290 290 290 290 290 290 290 290 290 289 289 289 290 290 290 289 289 288 288 287 287 287 287 287 286 286 286 286 286 286 286 286 287 287 287 287 286 286 286 285 285 285 285 285 286 286 286 286 286 286 286 286 285 285 284 284 283 282 282 281 280 280 279
291 292 292 292 292 292 292 293 293 292 292 292 291 291 291 291 291 290 290 290 290 290 290 290 290 290 290 290 290 290 290 289 289 289 289 289 289 289 289 289 288 288 287 287 288 288 287 287 287 287 287 287 287 287 287 288 288 288 288 287 287 287 287 286 286 286 286 286 286 286 286 286 285 285 285 284 284 284 283 282 281 281 280 279 278 278
292 293 293 293 293 293 293 293 293 293 292 292 292 291 291 291 291 291 291 290 290 290 290 290 290 290 290 290 290 291 290 290 290 290 290 290 290 290 290 290 289 289 288 289 289 289 289 288 288 288 288 288 288 289 289 289 289 288 288 288 288 287 287 287 287 287 286 286 286 285 285 285 284 284 284 283 283 282 282 281 280 279 278 277 276 276
292 293 293 293 293 293 293 293 293 293 293 292 292 292 292 291 291 291 291 291 291 291 291 291 291 291 291 291 291 291 291 291 291 291 291 291 290 290 290 290 290 290 290 289 289 290 289 289 289 289 290 290 290 290 290 290 290 290 289 289 288 288 288 287 287 286 286 285 285 284 284 283 283 283 282 282 282 281 280 279 278 277 276 275 274 274
293 293 293 293 293 293 293 293 293 293 293 293 293 293 292 292 292 292 292 292 292 292 292 292 291 291 291 291 291 291 291 291 291 291 291 291 291 290 290 290 291 290 290 289 289 289 289 289 289 289 290 290 291 291 292 292 291 291 291 290 289 289 288 287 287 286 285 284 283 283 282 282 281 281 281 281 280 279 278 277 276 275 274 273 272 272
293 293 293 293 293 293 293 293 293 293 293 293 293 293 293 292 292 292 292 292 292 292 292 291 291 291 291 291 291 290 290 291 291 291 291 291 291 290 290 290 290 290 290 289 289 289 289 288 288 289 290 290 291 291 292 292 292 292 291 291 290 289 288 287 286 285 283 282 281 281 280 280 279 279 279 279 278 277 276 275 274 273 272 271 271 271
292 292 292 293 293 293 293 292 292 292 292 292 292 292 292 292 291 291 291 291 291 291 291 290 290 290 290 290 290 290 290 290 290 290 291 291 291 290 290 290 290 290 290 289 289 288 288 288 288 288 289 290 290 290 291 291 292 292 292 291 290 289 288 286 284 283 281 280 278 278 277 277 277 277 276 276 275 275 274 273 272 271 270 270 270 270
291 291 291 291 291 291 291 291 291 291 291 291 290 290 290 290 290 290 290 290 290 290 289 289 289 290 290 290 289 289 289 289 289 290 291 291 291 290 290 290 290 290 290 291 290 289 288 288 288 289 289 289 290 290 291 291 292 292 292 291 290 289 287 285 283 280 278 276 274 274 273 273 273 273 273 273 273 272 272 271 270 269 269 269 269 269
290 290 290 290 290 290 290 290 290 290 289 289 289 289 289 289 289 289 289 289 289 289 289 289 289 289 289 289 289 289 289 289 290 291 292 292 291 290 290 291 291 291 292 293 293 291 290 289 289 290 290 290 291 292 292 293 293 294 293 292 290 288 286 283 280 276 274 272 270 269 269 269 270 270 270 270 270 270 270 269 269 269 269 269 269 269
289 289 289 289 289 289 289 289 289 289 289 289 289 289 289 289 289 289 289 289 289 289 289 289 289 289 289 290 290 290 289 289 290 292 293 293 292 291 292 292 292 291 292 294 295 294 292 291 291 292 292 293 293 294 295 295 296 295 294 292 289 287 283 279 275 272 270 268 266 266 266 266 266 267 267 268 268 268 269 269 269 269 269 269 270 270
288 288 288 288 288 289 289 289 289 289 289 289 289 289 289 289 289 289 289 290 290 290 290 290 290 290 290 290 290 290 290 290 291 292 293 293 292 291 292 292 292 291 292 294 295 294 294 293 293 293 294 294 295 295 296 296 296 295 293 291 288 285 281 276 272 270 267 265 263 263 263 263 264 265 265 266 267 267 268 268 268 269 269 270 270 271
288 288 288 288 288 288 288 288 288 289 289 289 289 289 289 289 289 289 289 289 289 290 290 290 290 290 290 290 290 290 290 291 292 292 293 293 292 291 292 292 292 292 292 294 294 294 294 294 294 294 295 295 295 295 295 295 294 293 292 289 287 284 281 276 272 269 266 264 262 261 261 262 263 264 265 265 266 267 267 268 268 269 269 270 271 272
288 288 288 288 288 288 288 288 288 288 288 288 289 289 289 289 289 289 289 289 289 289 289 290 290 290 290 290 290 290 290 291 292 292 293 293 292 292 292 293 293 293 293 294 294 294 294 294 294 295 296 296 295 294 293 293 293 292 291 288 286 284 281 277 273 269 266 264 263 262 262 262 263 264 266 266 267 268 268 268 268 269 270 270 271 272
288 288 288 288 288 288 288 288 288 288 288 289 289 289 289 289 289 289 289 289 289 289 290 290 290 291 291 291 291 291 291 291 292 293 293 293 293 293 294 293 293 293 294 293 293 293 293 294 294 295 296 296 295 294 293 292 293 293 292 289 285 283 280 278 274 271 268 266 265 264 264 265 266 267 268 269 269 269 269 269 269 269 270 271 271 272
288 288 288 288 289 288 288 289 289 289 289 289 289 289 289 289 289 289 289 290 290 291 291 291 292 292 292 292 292 292 292 292 292 293 293 293 294 294 294 293 293 294 294 293 293 293 294 295 295 295 295 294 294 294 294 294 294 293 292 289 286 283 280 278 275 273 271 269 267 267 267 268 269 271 272 272 272 272 271 270 270 269 270 270 271 271
289 289 289 289 289 289 289 289 289 290 290 290 290 290 290 290 290 290 291 291 292 292 292 293 293 293 293 293 293 293 293 293 293 293 293 293 294 294 294 293 293 294 294 293 294 294 295 294 294 294 293 292 292 292 293 294 294 292 290 288 286 284 282 279 278 276 274 272 270 269 270 272 273 275 275 275 275 273 272 270 270 269 270 270 271 271
289 289 290 290 290 290 290 290 290 290 290 291 291 291 291 291 291 291 292 292 293 293 293 293 294 294 293 293 293 293 293 293 293 294 294 294 294 294 294 293 293 293 293 293 293 293 292 291 291 291 291 291 290 290 291 291 291 290 288 287 286 285 283 282 281 279 276 273 272 272 274 276 278 279 279 278 276 274 272 271 270 270 270 271 271 272
290 291 291 291 291 291 291 291 291 291 291 291 291 291 291 292 292 292 292 293 293 294 294 294 294 293 293 293 292 292 293 293 293 294 294 295 295 295 294 293 293 292 292 292 291 291 290 289 289 289 289 289 290 290 290 289 289 289 289 289 288 286 284 283 283 281 279 276 275 276 278 281 282 282 281 279 277 275 273 272 271 271 272 272 273 273
292 292 292 292 292 292 292 292 292 292 292 292 292 292 292 292 292 292 293 293 294 294 294 294 294 293 292 292 292 292 292 293 293 294 295 295 295 295 294 293 293 292 292 291 290 289 288 288 288 288 288 288 289 290 290 291 291 291 291 291 289 288 286 285 284 282 280 279 279 280 282 283 283 282 281 279 278 277 276 276 275 275 274 274 275 275
292 292 292 292 292 292 292 292 292 292 292 292 292 292 292 292 292 293 293 293 294 294 293 293 293 292 292 291 291 291 292 292 293 294 295 295 295 294 293 292 291 291 291 290 290 288 287 286 286 286 286 287 288 289 290 290 290 289 289 289 288 288 288 288 286 284 283 282 281 281 282 283 284 283 282 281 281 281 281 281 280 279 278 277 277 277
293 292 292 292 292 292 292 291 291 291 291 291 291 292 292 292 293 293 293 294 294 294 293 293 293 292 292 291 291 291 291 292 293 294 294 294 293 293 291 290 289 288 288 288 288 287 285 284 284 284 285 285 286 286 286 286 285 285 285 286 288 289 290 289 288 286 285 284 283 282 282 282 283 283 283 283 283 284 284 284 283 281 280 280 279 279
293 292 292 292 292 291 291 291 291 290 290 291 291 291 291 292 292 293 293 294 294 294 293 293 293 293 292 292 292 293 293 294 294 294 294 294 294 293 290 288 286 285 285 285 284 284 283 282 281 282 283 284 284 284 283 283 284 284 285 286 289 290 291 290 289 288 286 285 284 283 283 282 282 282 282 282 283 284 284 284 284 283 282 282 282 282
292 292 292 291 291 290 290 290 290 290 290 290 290 290 290 291 292 292 292 293 293 293 293 293 293 293 293 293 293 294 295 295 295 295 295 294 293 291 289 286 284 283 282 281 281 281 281 281 280 281 281 283 283 284 284 284 285 286 287 288 289 289 289 289 288 287 286 285 284 284 283 283 282 281 280 281 282 283 284 285 285 285 285 284 284 283
291 291 290 290 290 290 289 289 289 289 289 289 289 289 290 290 290 291 291 291 291 292 292 292 292 292 292 292 293 294 295 294 294 293 293 292 290 288 286 284 283 282 281 280 279 279 279 280 281 282 283 283 283 283 284 285 285 286 286 287 288 288 288 287 287 286 286 285 285 284 284 283 281 280 280 280 282 284 286 287 287 287 286 286 285 284
289 289 288 288 288 288 288 287 287 287 287 287 288 288 288 288 288 288 288 289 289 289 290 290 290 290 290 291 292 292 292 292 291 291 290 288 286 285 283 282 281 280 280 279 279 279 279 280 282 283 283 283 282 282 282 284 285 285 286 286 287 286 286 285 285 285 286 286 285 285 283 282 281 280 281 283 285 287 288 288 288 288 287 286 285 284
286 286 286 286 286 285 285 285 285 285 285 285 285 285 286 286 286 286 286 286 287 287 287 288 288 288 288 289 290 291 291 290 290 289 288 286 284 283 281 280 279 278 278 278 278 279 280 280 281 281 282 282 282 282 283 284 285 286 286 286 286 284 284 284 284 285 285 284 284 283 282 281 281 282 284 286 288 289 289 288 288 287 287 285 284 283
284 284 284 284 283 283 283 283 283 283 283 283 283 283 283 283 283 284 284 285 285 286 286 286 287 287 287 287 288 289 289 289 289 288 287 286 284 282 280 279 277 277 276 277 277 278 279 279 279 279 280 281 283 285 286 287 287 287 287 286 284 283 283 283 283 283 283 282 281 281 281 282 283 285 286 288 288 288 289 288 288 287 286 285 284 283
283 283 283 283 282 282 282 282 282 282 282 282 282 281 281 281 282 282 283 283 284 284 285 285 285 285 286 286 286 287 287 287 287 287 287 286 284 283 281 280 279 279 278 277 277 277 277 277 277 278 280 283 286 288 290 290 289 287 286 284 283 282 282 282 282 281 280 280 280 281 282 283 284 286 287 287 288 288 288 288 288 287 286 285 284 282
283 283 283 283 283 283 282 282 282 282 281 281 281 281 281 281 281 281 281 282 282 283 283 284 284 284 284 284 285 286 286 287 287 287 286 286 285 284 284 284 284 283 282 281 279 278 277 276 276 278 280 284 288 290 290 289 288 286 284 283 282 281 281 280 280 280 279 279 280 281 282 283 285 286 286 287 288 288 288 288 288 287 286 285 283 282
284 284 284 284 284 283 283 283 283 282 282 281 281 281 280 280 280 280 280 281 281 282 282 283 283 283 284 285 286 287 287 287 287 287 286 287 287 287 287 288 288 287 286 285 283 282 281 280 280 281 283 285 287 288 288 287 286 284 283 282 281 280 280 279 279 279 279 280 281 282 283 284 285 285 286 287 288 288 288 288 288 287 286 285 283 281
Height
3046 3046 3046 3046 3047 3047 3047 3047 3047 3047 3047 3047 3048 3048 3048 3048 3048 3048 3048 3049 3049 3049 3049 3048 3048 3048 3048 3048 3048 3048 3048 3048 3048 3048 3047 3047 3047 3047 3047 3047 3047 3047 3046 3046 3046 3046 3045 3045 3045 3045 3044 3044 3044 3044 3043 3043 3043 3042 3042 3042 3041 3041 3041 3040 3040 3040 3040 3039 3039 3039 3038 3038 3037 3037 3037 3036 3036 3036 3036 3035 3035 3035 3035 3035 3035 3034
3044 3045 3045 3045 3045 3045 3045 3045 3046 3046 3046 3046 3046 3046 3046 3046 3046 3046 3046 3046 3046 3046 3046 3046 3046 3046 3046 3046 3045 3045 3045 3045 3045 3045 3045 3045 3045 3045 3044 3044 3044 3044 3043 3043 3043 3043 3042 3042 3042 3041 3041 3041 3041 3040 3040 3040 3040 3039 3039 3038 3038 3038 3037 3037 3037 3036 3036 3036 3035 3035 3035 3035 3034 3034 3033 3033 3032 3032 3032 3031 3031 3031 3031 3031 3030 3030
3043 3043 3043 3044 3044 3044 3044 3044 3044 3044 3044 3044 3044 3044 3045 3045 3045 3045 3045 3044 3044 3044 3044 3044 3044 3044 3044 3043 3043 3043 3042 3042 3042 3042 3042 3042 3042 3041 3041 3041 3041 3040 3040 3040 3040 3040 3039 3039 3039 3038 3038 3038 3037 3037 3037 3036 3036 3036 3035 3035 3035 3034 3034 3034 3033 3033 3032 3032 3032 3031 3031 3031 3030 3030 3030 3029 3029 3028 3028 3027 3027 3027 3027 3026 3026 3026
3041 3041 3042 3042 3042 3043 3042 3042 3042 3042 3042 3042 3042 3042 3042 3042 3042 3042 3042 3042 3042 3041 3041 3041 3041 3041 3041 3041 3040 3040 3040 3039 3039 3039 3039 3039 3039 3038 3038 3038 3038 3037 3037 3037 3036 3036 3036 3035 3035 3035 3035 3034 3034 3034 3033 3033 3032 3032 3032 3031 3031 3030 3030 3030 3029 3029 3029 3028 3028 3027 3027 3027 3026 3026 3025 3025 3024 3024 3023 3023 3023 3022 3022 3022 3022 3021
3040 3040 3040 3040 3040 3040 3040 3040 3040 3040 3040 3040 3040 3040 3040 3040 3040 3040 3040 3040 3039 3039 3039 3039 3038 3038 3038 3038 3038 3037 3037 3036 3036 3036 3036 3035 3035 3035 3035 3035 3035 3034 3034 3034 3033 3033 3032 3032 3032 3031 3031 3031 3030 3030 3030 3029 3029 3028 3028 3027 3027 3026 3026 3025 3025 3025 3024 3024 3023 3023 3023 3022 3022 3022 3021 3020 3020 3020 3019 3019 3018 3018 3018 3017 3017 3017
3037 3037 3037 3038 3038 3038 3038 3038 3038 3038 3038 3038 3038 3038 3038 3037 3037 3037 3037 3037 3037 3036 3036 3036 3035 3035 3035 3035 3035 3034 3034 3034 3033 3033 3033 3033 3032 3032 3032 3031 3031 3031 3030 3030 3030 3029 3029 3028 3028 3028 3027 3027 3027 3026 3026 3025 3025 3024 3024 3023 3023 3022 3022 3021 3020 3020 3020 3019 3019 3019 3018 3018 3018 3017 3017 3016 3016 3015 3015 3014 3014 3014 3013 3013 3013 3012
3035 3035 3035 3035 3035 3035 3035 3035 3035 3035 3035 3035 3035 3035 3035 3035 3034 3034 3034 3034 3034 3034 3033 3033 3033 3032 3032 3031 3031 3031 3031 3031 3030 3030 3030 3030 3029 3029 3029 3028 3028 3027 3027 3026 3026 3025 3025 3025 3024 3024 3024 3023 3023 3022 3022 3021 3021 3020 3020 3019 3018 3018 3017 3016 3016 3015 3015 3015 3014 3014 3014 3013 3013 3012 3012 3012 3011 3011 3010 3010 3010 3009 3009 3008 3008 3008
3031 3031 3031 3031 3031 3032 3032 3032 3032 3032 3032 3031 3031 3031 3031 3031 3031 3031 3031 3031 3030 3030 3030 3030 3030 3030 3029 3029 3028 3028 3028 3027 3027 3027 3027 3026 3026 3025 3025 3025 3024 3024 3023 3023 3022 3022 3021 3021 3020 3020 3020 3019 3019 3018 3018 3017 3017 3016 3015 3015 3014 3013 3013 3012 3011 3011 3010 3010 3010 3009 3009 3009 3008 3008 3007 3007 3006 3006 3005 3005 3005 3004 3004 3004 3003 3003
3028 3028 3028 3028 3028 3028 3029 3029 3029 3029 3029 3028 3028 3028 3028 3028 3028 3028 3028 3028 3027 3027 3027 3027 3027 3027 3026 3026 3025 3025 3024 3024 3024 3024 3023 3023 3023 3022 3022 3021 3020 3020 3019 3019 3018 3018 3017 3017 3016 3016 3015 3015 3015 3014 3014 3013 3012 3012 3011 3010 3010 3009 3008 3007 3007 3006 3006 3005 3005 3005 3004 3004 3003 3003 3003 3002 3002 3001 3001 3000 3000 3000 2999 2999 2999 2998
3025 3025 3025 3025 3025 3025 3025 3025 3025 3026 3026 3025 3025 3024 3024 3024 3024 3024 3024 3024 3024 3024 3024 3024 3023 3023 3023 3023 3023 3022 3021 3021 3021 3020 3020 3020 3019 3019 3018 3017 3017 3016 3015 3015 3014 3014 3013 3013 3012 3012 3011 3011 3010 3010 3009 3009 3008 3007 3006 3005 3005 3004 3003 3003 3002 3002 3001 3001 3000 3000 3000 2999 2999 2998 2998 2997 2997 2996 2996 2996 2995 2995 2995 2994 2994 2993
3021 3021 3021 3021 3022 3022 3022 3021 3021 3022 3023 3022 3021 3021 3020 3020 3020 3020 3020 3020 3021 3021 3021 3020 3020 3020 3020 3020 3020 3019 3019 3018 3017 3017 3017 3016 3016 3015 3014 3014 3013 3012 3011 3011 3010 3010 3009 3009 3008 3007 3007 3006 3006 3005 3004 3004 3003 3002 3001 3001 3000 2999 2999 2998 2997 2997 2996 2996 2995 2995 2995 2994 2994 2993 2993 2992 2992 2992 2991 2991 2990 2990 2990 2989 2989 2988
3018 3018 3019 3019 3019 3019 3019 3018 3018 3018 3019 3019 3018 3017 3017 3017 3017 3017 3016 3016 3016 3017 3017 3017 3017 3016 3016 3016 3016 3015 3015 3015 3014 3014 3014 3013 3013 3011 3010 3010 3009 3009 3008 3007 3007 3006 3005 3005 3004 3003 3002 3002 3001 3000 3000 2999 2998 2997 2996 2996 2995 2994 2994 2993 2992 2992 2991 2991 2990 2990 2990 2989 2989 2988 2988 2987 2987 2987 2986 2986 2985 2985 2985 2984 2984 2984
3015 3015 3016 3016 3016 3016 3016 3015 3015 3015 3015 3015 3015 3014 3014 3014 3014 3014 3013 3012 3012 3013 3013 3013 3013 3013 3013 3013 3012 3011 3011 3011 3011 3010 3010 3010 3009 3008 3007 3006 3005 3005 3004 3003 3003 3002 3001 3000 3000 2999 2998 2997 2996 2995 2995 2994 2993 2992 2991 2990 2990 2989 2989 2988 2987 2987 2986 2986 2985 2985 2985 2984 2984 2983 2983 2982 2982 2982 2981 2981 2980 2980 2980 2979 2979 2979
3012 3013 3013 3013 3013 3013 3013 3013 3013 3012 3012 3012 3012 3011 3011 3010 3010 3010 3010 3009 3008 3009 3010 3009 3009 3008 3009 3009 3009 3008 3007 3006 3006 3006 3006 3006 3005 3004 3004 3003 3002 3001 3000 3000 2999 2998 2997 2996 2995 2995 2994 2993 2992 2991 2990 2989 2988 2987 2986 2985 2985 2984 2984 2983 2982 2982 2981 2981 2980 2980 2980 2979 2979 2978 2978 2978 2977 2977 2976 2976 2975 2975 2975 2974 2974 2973
3010 3010 3010 3010 3010 3010 3010 3010 3010 3010 3009 3009 3009 3009 3008 3007 3007 3007 3007 3006 3005 3005 3006 3005 3005 3004 3005 3005 3005 3004 3003 3002 3001 3001 3001 3001 3001 3000 3000 2999 2998 2997 2996 2996 2995 2995 2994 2992 2991 2990 2989 2988 2987 2986 2985 2984 2983 2982 2981 2980 2980 2979 2978 2978 2977 2976 2976 2975 2975 2975 2975 2974 2974 2974 2973 2973 2972 2972 2971 2971 2970 2970 2970 2969 2969 2969
3007 3007 3007 3007 3007 3007 3007 3007 3007 3006 3006 3006 3006 3005 3005 3004 3004 3004 3004 3003 3002 3001 3002 3001 3001 3000 3000 3001 3001 3000 2999 2997 2996 2996 2997 2997 2997 2996 2995 2995 2994 2993 2993 2993 2992 2991 2990 2989 2987 2986 2985 2984 2983 2982 2981 2980 2979 2978 2977 2976 2975 2974 2973 2973 2972 2971 2971 2970 2970 2970 2970 2969 2969 2969 2969 2968 2968 2967 2967 2966 2966 2965 2965 2965 2964 2964
3005 3004 3004 3003 3003 3003 3003 3003 3003 3002 3002 3002 3002 3001 3001 3000 3000 2999 2999 2999 2998 2997 2997 2997 2996 2995 2995 2997 2997 2996 2994 2993 2991 2990 2991 2992 2992 2992 2990 2990 2990 2988 2988 2989 2989 2988 2986 2984 2983 2982 2981 2980 2979 2978 2976 2975 2975 2973 2972 2971 2970 2970 2969 2968 2967 2966 2965 2965 2965 2964 2964 2964 2964 2964 2964 2963 2963 2963 2962 2962 2961 2961 2960 2960 2959 2959
3001 3001 3000 3000 3000 3000 3000 2999 2999 2998 2997 2997 2997 2997 2996 2996 2995 2995 2994 2994 2993 2992 2992 2992 2991 2990 2990 2990 2991 2990 2989 2988 2986 2984 2984 2986 2987 2987 2985 2985 2984 2983 2983 2983 2984 2983 2981 2980 2978 2977 2976 2976 2975 2973 2972 2971 2970 2969 2968 2967 2966 2965 2964 2963 2962 2961 2960 2960 2959 2959 2959 2959 2959 2959 2958 2958 2958 2957 2957 2957 2956 2956 2955 2955 2954 2954
2998 2998 2997 2997 2996 2996 2996 2995 2995 2994 2993 2993 2992 2992 2991 2991 2990 2990 2989 2988 2988 2987 2987 2986 2986 2985 2985 2985 2985 2984 2983 2982 2980 2978 2977 2978 2980 2981 2980 2978 2977 2977 2976 2976 2977 2976 2975 2974 2973 2972 2971 2971 2970 2969 2967 2966 2965 2965 2963 2962 2961 2960 2960 2958 2957 2956 2955 2955 2954 2954 2954 2953 2953 2953 2953 2953 2952 2952 2952 2951 2951 2950 2950 2950 2949 2949
2995 2995 2994 2993 2993 2992 2992 2991 2991 2990 2989 2988 2988 2987 2987 2986 2985 2985 2984 2983 2982 2982 2982 2981 2980 2980 2980 2979 2979 2978 2977 2976 2975 2972 2970 2970 2973 2975 2975 2972 2970 2970 2970 2970 2970 2970 2969 2967 2966 2965 2965 2965 2964 2963 2962 2961 2960 2959 2958 2957 2956 2955 2955 2954 2952 2951 2950 2950 2949 2949 2948 2948 2948 2948 2947 2947 2947 2947 2946 2946 2946 2945 2945 2945 2944 2944
2991 2991 2990 2990 2989 2988 2988 2987 2987 2986 2985 2984 2983 2983 2982 2981 2981 2980 2980 2979 2978 2977 2976 2976 2975 2975 2974 2974 2974 2973 2971 2970 2969 2967 2964 2964 2965 2968 2968 2965 2964 2963 2962 2963 2963 2963 2963 2961 2960 2959 2959 2959 2958 2957 2956 2955 2954 2954 2953 2952 2951 2950 2949 2948 2947 2946 2946 2945 2945 2944 2943 2943 2943 2942 2942 2942 2942 2941 2941 2941 2940 2940 2940 2939 2939 2939
2988 2987 2987 2986 2985 2985 2983 2983 2982 2982 2981 2980 2979 2978 2977 2976 2976 2975 2975 2974 2973 2972 2971 2971 2970 2970 2970 2969 2968 2968 2967 2966 2964 2961 2958 2958 2959 2960 2962 2960 2957 2956 2955 2955 2956 2956 2956 2955 2953 2952 2952 2952 2952 2951 2950 2949 2949 2948 2947 2946 2946 2945 2944 2943 2942 2942 2941 2940 2940 2939 2939 2938 2938 2937 2937 2937 2936 2936 2936 2936 2935 2935 2935 2934 2934 2934
2984 2983 2983 2982 2982 2980 2979 2979 2978 2978 2977 2976 2974 2973 2972 2972 2971 2970 2969 2969 2968 2967 2966 2966 2965 2965 2965 2964 2963 2962 2962 2961 2959 2956 2954 2952 2951 2953 2955 2954 2951 2950 2949 2949 2949 2949 2949 2948 2947 2946 2946 2946 2946 2945 2945 2944 2944 2943 2942 2941 2941 2940 2939 2939 2938 2937 2936 2936 2935 2935 2934 2933 2933 2932 2932 2932 2931 2931 2931 2931 2930 2930 2930 2929 2929 2929
2980 2979 2979 2978 2978 2977 2975 2975 2974 2973 2972 2971 2970 2969 2968 2967 2966 2965 2964 2964 2963 2962 2961 2960 2960 2960 2959 2958 2958 2957 2956 2955 2953 2951 2950 2947 2945 2946 2947 2947 2945 2943 2942 2942 2943 2942 2941 2940 2940 2940 2940 2940 2940 2940 2939 2939 2939 2938 2937 2937 2936 2936 2935 2934 2934 2933 2932 2931 2931 2930 2929 2929 2928 2928 2927 2927 2927 2926 2926 2926 2926 2925 2925 2925 2924 2924
2976 2975 2975 2974 2974 2973 2972 2970 2970 2969 2968 2967 2965 2964 2963 2962 2961 2961 2960 2959 2958 2957 2956 2955 2954 2953 2953 2953 2953 2952 2950 2948 2947 2946 2945 2941 2939 2940 2941 2941 2939 2936 2935 2935 2936 2936 2935 2934 2934 2934 2934 2934 2934 2934 2933 2933 2933 2933 2933 2932 2932 2931 2931 2930 2929 2929 2928 2927 2926 2925 2925 2924 2924 2923 2923 2922 2922 2922 2922 2921 2921 2920 2920 2920 2920 2919
2972 2971 2971 2970 2970 2969 2968 2967 2965 2965 2963 2962 2961 2959 2958 2957 2956 2956 2955 2954 2953 2951 2950 2950 2948 2947 2947 2947 2947 2946 2945 2943 2942 2941 2939 2936 2934 2934 2936 2936 2934 2931 2930 2929 2929 2930 2930 2929 2928 2928 2929 2929 2929 2928 2928 2928 2928 2928 2927 2927 2927 2927 2926 2925 2925 2924 2924 2923 2922 2921 2920 2920 2919 2919 2918 2918 2918 2917 2917 2917 2916 2916 2916 2915 2915 2914
2968 2968 2967 2966 2965 2965 2964 2963 2961 2960 2960 2958 2957 2955 2954 2952 2952 2951 2950 2949 2948 2947 2946 2944 2943 2942 2942 2942 2942 2941 2940 2939 2938 2936 2934 2932 2930 2929 2930 2930 2929 2927 2925 2923 2923 2924 2924 2923 2923 2923 2924 2924 2923 2923 2923 2923 2923 2923 2923 2922 2922 2922 2922 2921 2920 2920 2919 2919 2918 2917 2916 2915 2915 2914 2914 2914 2913 2913 2913 2912 2912 2912 2911 2910 2910 2910
2964 2964 2963 2962 2961 2960 2960 2959 2958 2957 2956 2955 2953 2952 2950 2949 2948 2947 2945 2945 2944 2943 2942 2939 2938 2937 2937 2937 2936 2936 2935 2935 2933 2931 2929 2928 2926 2924 2924 2924 2924 2923 2920 2917 2916 2917 2918 2918 2918 2918 2918 2918 2918 2918 2918 2918 2918 2918 2918 2918 2918 2917 2917 2917 2916 2916 2915 2914 2913 2913 2912 2911 2910 2910 2910 2909 2909 2909 2908 2908 2908 2907 2907 2906 2905 2905
2960 2960 2959 2958 2957 2956 2955 2955 2954 2953 2952 2951 2950 2948 2946 2945 2944 2943 2941 2940 2940 2939 2937 2935 2934 2933 2932 2931 2931 2930 2931 2930 2929 2927 2925 2924 2921 2919 2918 2919 2920 2918 2915 2912 2910 2910 2911 2911 2912 2913 2913 2912 2912 2913 2913 2914 2914 2914 2914 2913 2913 2913 2913 2913 2912 2912 2911 2910 2909 2909 2908 2907 2906 2906 2905 2905 2905 2905 2904 2904 2903 2903 2902 2901 2901 2901
2956 2955 2955 2954 2953 2952 2951 2950 2950 2949 2948 2947 2946 2945 2943 2941 2940 2939 2937 2936 2935 2934 2932 2931 2930 2929 2928 2927 2925 2925 2925 2925 2925 2923 2921 2920 2916 2914 2913 2915 2915 2913 2910 2908 2906 2904 2903 2903 2905 2907 2907 2906 2906 2906 2907 2908 2909 2909 2909 2909 2909 2909 2909 2908 2908 2907 2907 2906 2905 2905 2904 2903 2903 2902 2902 2901 2901 2900 2900 2900 2899 2898 2897 2897 2897 2897
2952 2951 2950 2949 2948 2948 2947 2946 2945 2944 2943 2942 2941 2940 2939 2937 2936 2935 2933 2931 2930 2930 2928 2926 2925 2925 2924 2923 2921 2920 2920 2920 2921 2920 2918 2916 2912 2909 2909 2910 2910 2908 2906 2905 2904 2901 2897 2896 2897 2900 2901 2900 2900 2900 2900 2902 2903 2904 2904 2904 2904 2905 2905 2904 2904 2903 2902 2902 2901 2900 2900 2899 2899 2898 2898 2897 2897 2896 2896 2895 2895 2894 2893 2893 2893 2893
2947 2946 2945 2945 2944 2943 2942 2941 2940 2939 2938 2937 2936 2935 2934 2933 2932 2930 2929 2927 2926 2925 2924 2922 2921 2920 2919 2919 2917 2915 2915 2916 2916 2916 2914 2912 2909 2905 2905 2906 2906 2904 2902 2902 2901 2899 2895 2892 2892 2894 2896 2896 2896 2895 2895 2897 2898 2899 2899 2899 2900 2900 2900 2900 2900 2899 2898 2897 2897 2896 2896 2895 2895 2894 2894 2893 2893 2892 2892 2891 2890 2890 2889 2889 2889 2888
2943 2942 2941 2940 2939 2938 2937 2936 2935 2934 2933 2932 2931 2930 2930 2929 2927 2926 2925 2923 2922 2921 2920 2918 2917 2916 2915 2914 2913 2912 2911 2912 2912 2911 2910 2908 2905 2902 2900 2901 2902 2901 2899 2898 2897 2895 2893 2890 2889 2890 2891 2892 2892 2892 2892 2892 2893 2894 2895 2895 2895 2895 2895 2896 2895 2895 2894 2893 2892 2892 2892 2891 2890 2890 2890 2889 2889 2888 2888 2887 2886 2885 2885 2885 2885 2884
2938 2937 2936 2936 2935 2934 2933 2932 2931 2930 2929 2928 2927 2926 2925 2924 2923 2922 2921 2920 2918 2917 2916 2915 2914 2912 2911 2910 2909 2908 2907 2908 2908 2907 2906 2904 2901 2898 2896 2897 2897 2897 2895 2894 2893 2891 2890 2888 2887 2886 2886 2886 2887 2887 2888 2889 2889 2890 2890 2891 2891 2891 2891 2891 2891 2890 2890 2889 2888 2888 2888 2887 2887 2886 2886 2885 2885 2884 2884 2883 2882 2882 2881 2881 2881 2880
2934 2933 2932 2931 2930 2930 2929 2928 2927 2926 2925 2924 2923 2922 2921 2920 2919 2918 2916 2915 2914 2913 2912 2911 2910 2909 2908 2906 2905 2904 2903 2904 2904 2904 2902 2900 2897 2895 2893 2893 2893 2893 2892 2890 2889 2888 2887 2885 2884 2884 2883 2882 2881 2881 2883 2885 2886 2886 2886 2886 2887 2887 2887 2887 2886 2886 2885 2885 2885 2884 2884 2883 2883 2882 2882 2881 2881 2880 2880 2879 2878 2878 2877 2877 2877 2876
2929 2928 2928 2927 2926 2925 2924 2923 2922 2921 2921 2920 2919 2917 2916 2915 2914 2913 2912 2911 2910 2909 2908 2906 2905 2904 2903 2902 2901 2900 2899 2899 2899 2899 2898 2896 2894 2892 2891 2889 2888 2888 2889 2887 2885 2885 2884 2882 2881 2881 2880 2879 2878 2877 2878 2880 2882 2883 2882 2882 2882 2883 2883 2883 2882 2882 2881 2881 2880 2880 2880 2880 2879 2879 2878 2877 2877 2876 2876 2875 2875 2874 2874 2874 2873 2873
2924 2924 2923 2922 2922 2921 2920 2919 2918 2917 2916 2915 2914 2913 2912 2911 2910 2909 2908 2907 2906 2905 2904 2902 2901 2900 2899 2898 2896 2896 2895 2895 2895 2895 2894 2893 2891 2890 2888 2885 2884 2884 2885 2884 2882 2881 2881 2880 2878 2877 2876 2876 2876 2875 2875 2876 2877 2878 2878 2878 2878 2879 2879 2878 2878 2878 2878 2877 2876 2876 2875 2875 2875 2875 2874 2873 2873 2872 2872 2871 2871 2870 2870 2870 2870 2869
2920 2919 2919 2918 2917 2916 2915 2914 2913 2912 2912 2911 2910 2908 2907 2906 2905 2905 2903 2903 2902 2901 2900 2899 2897 2896 2895 2894 2893 2892 2891 2891 2891 2891 2890 2889 2888 2886 2885 2883 2881 2881 2881 2881 2880 2879 2878 2876 2875 2874 2873 2872 2873 2873 2874 2874 2874 2873 2873 2874 2875 2875 2875 2874 2874 2874 2874 2873 2873 2872 2871 2871 2871 2871 2870 2869 2869 2868 2868 2867 2867 2866 2866 2866 2866 2865
2915 2915 2914 2913 2912 2911 2911 2910 2908 2908 2907 2906 2905 2904 2903 2902 2901 2900 2899 2899 2898 2897 2896 2895 2894 2892 2891 2890 2890 2889 2888 2888 2887 2887 2887 2886 2885 2883 2882 2880 2879 2878 2877 2878 2877 2876 2875 2873 2872 2871 2870 2869 2869 2869 2870 2870 2870 2870 2869 2869 2869 2870 2871 2871 2871 2870 2870 2869 2869 2868 2868 2868 2867 2867 2867 2866 2865 2865 2864 2864 2863 2863 2863 2863 2862 2862
2911 2910 2910 2909 2908 2907 2906 2905 2904 2903 2902 2902 2900 2900 2898 2898 2897 2896 2895 2895 2894 2893 2892 2891 2890 2889 2888 2887 2886 2886 2885 2885 2884 2884 2884 2883 2882 2880 2879 2877 2876 2875 2874 2874 2874 2874 2873 2871 2870 2869 2868 2867 2866 2866 2866 2866 2867 2867 2867 2865 2864 2864 2866 2867 2867 2866 2865 2865 2865 2865 2865 2864 2864 2864 2863 2862 2862 2861 2861 2860 2860 2860 2860 2860 2859 2858
2907 2906 2905 2905 2904 2903 2902 2901 2900 2899 2898 2898 2897 2895 2895 2894 2893 2893 2891 2891 2890 2890 2889 2887 2886 2885 2884 2883 2883 2883 2882 2882 2882 2881 2881 2881 2880 2878 2876 2875 2873 2872 2871 2871 2870 2870 2870 2870 2868 2866 2865 2865 2864 2864 2863 2863 2864 2864 2864 2863 2861 2860 2861 2862 2863 2863 2862 2862 2862 2862 2862 2861 2860 2860 2859 2859 2859 2858 2858 2857 2857 2856 2856 2855 2855 2855
2904 2903 2902 2901 2900 2900 2899 2897 2896 2895 2895 2894 2893 2892 2891 2890 2890 2889 2888 2887 2886 2885 2885 2884 2883 2881 2880 2879 2879 2879 2880 2880 2879 2879 2878 2877 2877 2876 2874 2873 2871 2870 2869 2868 2867 2866 2866 2866 2866 2864 2863 2863 2862 2862 2861 2860 2861 2861 2862 2860 2859 2858 2858 2858 2859 2860 2860 2859 2858 2858 2858 2858 2857 2856 2855 2855 2855 2855 2854 2854 2853 2853 2852 2851 2851 2850
2900 2900 2899 2898 2897 2896 2895 2894 2893 2892 2891 2891 2890 2889 2888 2887 2887 2886 2885 2884 2882 2882 2881 2880 2879 2878 2876 2875 2875 2875 2875 2876 2876 2875 2874 2874 2873 2873 2871 2870 2869 2868 2867 2866 2865 2864 2863 2863 2863 2862 2861 2861 2860 2860 2858 2857 2858 2858 2859 2858 2858 2857 2855 2854 2854 2856 2856 2855 2854 2854 2854 2854 2854 2853 2852 2852 2851 2851 2850 2850 2850 2849 2848 2848 2847 2846
2897 2896 2895 2894 2893 2892 2891 2890 2889 2888 2888 2887 2887 2886 2885 2884 2884 2883 2882 2880 2879 2878 2878 2877 2876 2875 2874 2873 2872 2872 2872 2872 2872 2872 2871 2870 2870 2869 2868 2867 2866 2865 2864 2864 2863 2862 2861 2860 2860 2860 2860 2859 2859 2857 2856 2855 2855 2856 2855 2855 2856 2855 2853 2851 2851 2851 2852 2851 2851 2850 2850 2850 2850 2849 2848 2848 2848 2847 2847 2846 2846 2845 2845 2844 2843 2842
2893 2892 2891 2890 2890 2889 2888 2887 2885 2885 2885 2884 2883 2882 2881 2881 2880 2880 2878 2877 2876 2875 2875 2873 2873 2872 2870 2869 2869 2869 2869 2869 2869 2868 2868 2868 2867 2866 2865 2864 2863 2862 2862 2861 2860 2860 2859 2858 2857 2857 2857 2857 2856 2855 2854 2853 2853 2853 2853 2853 2853 2852 2850 2849 2849 2848 2848 2848 2847 2847 2847 2846 2845 2845 2844 2844 2844 2844 2843 2843 2842 2842 2841 2840 2840 2838
2890 2889 2888 2887 2886 2885 2885 2883 2882 2882 2881 2880 2880 2879 2879 2878 2877 2876 2875 2874 2873 2872 2871 2870 2870 2869 2868 2866 2866 2866 2866 2865 2865 2865 2865 2865 2864 2863 2862 2861 2860 2860 2859 2859 2858 2857 2857 2856 2855 2855 2855 2854 2853 2852 2852 2851 2851 2850 2849 2850 2850 2849 2847 2846 2846 2845 2845 2845 2844 2844 2843 2843 2842 2841 2840 2840 2840 2840 2840 2839 2839 2838 2837 2836 2835 2835
2887 2886 2885 2884 2883 2883 2881 2880 2880 2879 2878 2877 2877 2876 2876 2875 2874 2873 2872 2871 2870 2870 2869 2868 2867 2866 2865 2864 2863 2863 2862 2862 2861 2861 2861 2861 2861 2860 2859 2858 2858 2857 2857 2856 2855 2855 2855 2854 2854 2854 2853 2852 2850 2849 2849 2850 2849 2848 2847 2846 2846 2845 2844 2843 2843 2843 2843 2842 2841 2841 2840 2839 2838 2837 2836 2836 2836 2835 2835 2835 2835 2835 2833 2832 2831 2830
2884 2883 2882 2881 2880 2880 2879 2878 2877 2876 2875 2875 2874 2874 2873 2873 2872 2870 2869 2868 2867 2867 2866 2865 2864 2863 2862 2861 2861 2860 2860 2858 2857 2857 2857 2857 2857 2856 2856 2855 2855 2854 2854 2853 2853 2853 2852 2852 2852 2851 2851 2850 2848 2847 2846 2847 2847 2846 2845 2844 2843 2842 2841 2841 2840 2840 2840 2840 2839 2838 2837 2836 2835 2834 2834 2833 2832 2831 2831 2831 2831 2830 2830 2828 2827 2826
2881 2880 2879 2878 2877 2876 2875 2875 2874 2873 2872 2871 2871 2870 2870 2870 2869 2868 2867 2865 2865 2864 2864 2863 2861 2860 2860 2859 2858 2858 2857 2856 2855 2854 2854 2854 2854 2853 2852 2852 2851 2851 2851 2850 2850 2850 2850 2849 2849 2849 2849 2848 2847 2845 2844 2844 2844 2843 2842 2840 2840 2839 2838 2838 2838 2838 2837 2836 2836 2835 2834 2833 2832 2831 2830 2829 2828 2828 2828 2827 2827 2826 2825 2824 2823 2822
2878 2877 2875 2875 2874 2873 2872 2871 2870 2870 2869 2868 2868 2867 2867 2866 2866 2865 2865 2863 2862 2861 2861 2860 2859 2858 2857 2856 2855 2855 2855 2854 2853 2852 2852 2852 2851 2850 2850 2849 2849 2849 2848 2848 2848 2847 2847 2846 2845 2846 2846 2846 2845 2844 2842 2841 2840 2840 2839 2837 2837 2836 2836 2835 2835 2835 2834 2833 2833 2832 2831 2830 2829 2828 2827 2826 2825 2824 2824 2824 2823 2822 2822 2820 2819 2818
2875 2874 2872 2871 2871 2870 2869 2868 2867 2866 2866 2865 2865 2864 2864 2863 2863 2862 2862 2861 2860 2859 2858 2858 2857 2856 2855 2854 2853 2853 2853 2852 2851 2850 2850 2850 2849 2849 2848 2847 2847 2847 2846 2845 2845 2845 2844 2843 2842 2842 2843 2844 2844 2842 2840 2839 2838 2837 2836 2835 2834 2834 2833 2832 2832 2832 2831 2830 2830 2829 2828 2827 2826 2825 2824 2822 2821 2820 2820 2820 2820 2819 2818 2817 2816 2815